TimeEDT,TemperatureF,Dew PointF,Humidity,Sea Level PressureIn,VisibilityMPH,Wind Direction,Wind SpeedMPH,Gust SpeedMPH,PrecipitationIn,Events,Conditions,WindDirDegrees,DateUTC
12:15 AM,42.8,42.8,100,30.29,7.0,Calm,Calm,-,N/A,,Clear,0,2012-10-12 04:15:00
12:35 AM,42.8,42.8,100,30.28,3.0,Calm,Calm,-,N/A,,Clear,0,2012-10-12 04:35:00
12:55 AM,42.8,42.8,100,30.27,5.0,Calm,Calm,-,N/A,,Clear,0,2012-10-12 04:55:00
1:15 AM,42.8,42.8,100,30.27,5.0,Calm,Calm,-,N/A,,Clear,0,2012-10-12 05:15:00
1:35 AM,42.8,42.8,100,30.27,4.0,Calm,Calm,-,N/A,,Clear,0,2012-10-12 05:35:00
2:15 AM,41.0,41.0,100,30.27,0.8,Calm,Calm,-,N/A,,Mostly Cloudy,0,2012-10-12 06:15:00
2:35 AM,41.0,41.0,100,30.26,0.5,Calm,Calm,-,N/A,Fog,Fog,0,2012-10-12 06:35:00
2:55 AM,41.0,41.0,100,30.26,2.0,Calm,Calm,-,N/A,,Clear,0,2012-10-12 06:55:00
3:15 AM,42.8,42.8,100,30.25,2.5,Calm,Calm,-,N/A,,Scattered Clouds,0,2012-10-12 07:15:00
3:35 AM,42.8,42.8,100,30.25,0.8,Calm,Calm,-,N/A,,Mostly Cloudy,0,2012-10-12 07:35:00
3:55 AM,41.0,41.0,100,30.25,0.5,Calm,Calm,-,N/A,Fog,Fog,0,2012-10-12 07:55:00
4:15 AM,41.0,41.0,100,30.25,0.8,Calm,Calm,-,N/A,,Mostly Cloudy,0,2012-10-12 08:15:00
4:35 AM,41.0,41.0,100,30.24,0.2,Calm,Calm,-,N/A,Fog,Fog,0,2012-10-12 08:35:00
4:55 AM,41.0,41.0,100,30.25,0.8,Calm,Calm,-,N/A,,Mist,0,2012-10-12 08:55:00
5:15 AM,39.2,39.2,100,30.24,1.0,Calm,Calm,-,N/A,,Mist,0,2012-10-12 09:15:00
5:35 AM,37.4,37.4,100,30.25,5.0,Calm,Calm,-,N/A,,Clear,0,2012-10-12 09:35:00
5:55 AM,39.2,39.2,100,30.24,4.0,Calm,Calm,-,N/A,,Clear,0,2012-10-12 09:55:00
6:15 AM,41.0,41.0,100,30.26,5.0,Calm,Calm,-,N/A,,Clear,0,2012-10-12 10:15:00
6:35 AM,37.4,37.4,100,30.25,3.0,Calm,Calm,-,N/A,,Clear,0,2012-10-12 10:35:00
6:55 AM,39.2,39.2,100,30.26,5.0,Calm,Calm,-,N/A,,Clear,0,2012-10-12 10:55:00
7:15 AM,41.0,41.0,100,30.26,2.5,Calm,Calm,-,N/A,,Clear,0,2012-10-12 11:15:00
7:35 AM,41.0,41.0,100,30.26,2.0,Calm,Calm,-,N/A,,Clear,0,2012-10-12 11:35:00
7:55 AM,42.8,42.8,100,30.28,7.0,Calm,Calm,-,N/A,,Clear,0,2012-10-12 11:55:00
8:35 AM,44.6,44.6,100,30.29,10.0,Calm,Calm,-,N/A,,Mostly Cloudy,0,2012-10-12 12:35:00
8:55 AM,46.4,46.4,100,30.30,10.0,Calm,Calm,-,N/A,,Scattered Clouds,0,2012-10-12 12:55:00
9:15 AM,46.4,46.4,100,30.30,7.0,Calm,Calm,-,N/A,,Clear,0,2012-10-12 13:15:00
9:35 AM,48.2,48.2,100,30.30,10.0,Calm,Calm,-,N/A,,Clear,0,2012-10-12 13:35:00
10:15 AM,51.8,50.0,94,30.31,10.0,Calm,Calm,-,N/A,,Clear,0,2012-10-12 14:15:00
10:55 AM,53.6,50.0,88,30.29,10.0,Calm,Calm,-,N/A,,Clear,0,2012-10-12 14:55:00
11:15 AM,55.4,50.0,82,30.28,10.0,Calm,Calm,-,N/A,,Clear,0,2012-10-12 15:15:00
11:35 AM,59.0,48.2,67,30.29,10.0,Calm,Calm,-,N/A,,Clear,0,2012-10-12 15:35:00
11:55 AM,60.8,46.4,59,30.29,10.0,NNW,3.5,-,N/A,,Clear,340,2012-10-12 15:55:00
12:15 PM,62.6,46.4,55,30.28,10.0,Calm,Calm,-,N/A,,Clear,0,2012-10-12 16:15:00
12:35 PM,64.4,46.4,52,30.28,10.0,Calm,Calm,-,N/A,,Clear,0,2012-10-12 16:35:00
12:55 PM,68.0,46.4,46,30.27,10.0,Calm,Calm,-,N/A,,Clear,0,2012-10-12 16:55:00
1:15 PM,68.0,50.0,52,30.26,10.0,West,3.5,-,N/A,,Clear,280,2012-10-12 17:15:00
1:55 PM,69.8,50.0,49,30.26,10.0,Calm,Calm,-,N/A,,Clear,0,2012-10-12 17:55:00
2:35 PM,71.6,50.0,46,30.26,10.0,Calm,Calm,-,N/A,,Clear,0,2012-10-12 18:35:00
2:55 PM,71.6,50.0,46,30.25,10.0,WNW,6.9,-,N/A,,Clear,300,2012-10-12 18:55:00
3:15 PM,71.6,50.0,46,30.26,10.0,NNW,6.9,-,N/A,,Clear,330,2012-10-12 19:15:00
3:35 PM,71.6,50.0,46,30.26,10.0,WNW,3.5,-,N/A,,Scattered Clouds,300,2012-10-12 19:35:00
4:15 PM,71.6,48.2,43,30.26,10.0,North,8.1,-,N/A,,Overcast,360,2012-10-12 20:15:00
4:35 PM,69.8,46.4,43,30.26,10.0,North,4.6,-,N/A,,Overcast,360,2012-10-12 20:35:00
4:55 PM,68.0,50.0,52,30.26,10.0,North,3.5,-,N/A,,Overcast,10,2012-10-12 20:55:00
5:15 PM,68.0,50.0,52,30.27,10.0,North,4.6,-,N/A,,Overcast,360,2012-10-12 21:15:00
5:35 PM,66.2,48.2,52,30.27,10.0,North,4.6,-,N/A,,Overcast,360,2012-10-12 21:35:00
5:55 PM,64.4,48.2,56,30.28,10.0,North,4.6,-,N/A,,Overcast,10,2012-10-12 21:55:00
6:15 PM,64.4,48.2,56,30.29,10.0,North,3.5,-,N/A,,Overcast,360,2012-10-12 22:15:00
6:55 PM,64.4,48.2,56,30.30,10.0,North,4.6,-,N/A,,Overcast,350,2012-10-12 22:55:00
7:15 PM,64.4,48.2,56,30.30,10.0,NNW,4.6,-,N/A,,Overcast,340,2012-10-12 23:15:00
7:35 PM,62.6,46.4,55,30.30,10.0,NW,4.6,-,N/A,,Overcast,320,2012-10-12 23:35:00
7:55 PM,62.6,46.4,55,30.32,10.0,North,3.5,-,N/A,,Overcast,350,2012-10-12 23:55:00
8:15 PM,62.6,46.4,55,30.32,10.0,NNW,5.8,-,N/A,,Overcast,340,2012-10-13 00:15:00
8:35 PM,62.6,46.4,55,30.32,10.0,NNW,5.8,-,N/A,,Overcast,340,2012-10-13 00:35:00
8:55 PM,60.8,46.4,59,30.33,10.0,NNW,6.9,-,N/A,,Scattered Clouds,340,2012-10-13 00:55:00
9:15 PM,60.8,44.6,55,30.33,10.0,North,5.8,-,N/A,,Clear,350,2012-10-13 01:15:00
9:35 PM,59.0,44.6,59,30.34,10.0,NNW,4.6,-,N/A,,Clear,340,2012-10-13 01:35:00
10:15 PM,50.0,46.4,87,30.36,10.0,Calm,Calm,-,N/A,,Clear,0,2012-10-13 02:15:00
10:35 PM,50.0,46.4,87,30.36,10.0,Calm,Calm,-,N/A,,Clear,0,2012-10-13 02:35:00
10:55 PM,46.4,46.4,100,30.36,10.0,North,3.5,-,N/A,,Clear,10,2012-10-13 02:55:00
11:15 PM,46.4,44.6,93,30.37,10.0,Calm,Calm,-,N/A,,Clear,0,2012-10-13 03:15:00
11:35 PM,48.2,46.4,93,30.38,10.0,Calm,Calm,-,N/A,,Clear,0,2012-10-13 03:35:00